{"data":{"norad_id":60327,"epoch":"2026-05-25T02:45:43.460640Z","epoch_age_seconds":65064,"freshness":"FRESH","line1":"1 60327U 24135A   26145.11508635 -.00000175  00000+0  00000+0 0  9992","line2":"2 60327   0.0428 353.6107 0008026  11.7767  71.9414  1.00270609  7271","mean_motion":1.00270609,"eccentricity":0.0008026,"inclination_deg":0.0428,"raan_deg":353.6107,"arg_perigee_deg":11.7767,"mean_anomaly_deg":71.9414,"bstar":0,"rev_number":727,"period_min":1436.1137469505,"perigee_km":35753.082961431,"apogee_km":35820.766318375,"semimajor_km":42165.061639903,"source":"CELESTRAK","updated_at":"2026-05-25T13:38:14.147187Z"}}